CUSAT 2/FALCON 9

导读

CUSAT 2卫星由美国SpaceX公司使用猎鹰9号(Falcon 9)v1.1火箭于2013年9月29日发射升空,这是猎鹰9号改良版本的首飞任务。作为一颗小型技术试验卫星,它承载了相关空间技术验证任务。此次发射是SpaceX推进可重复使用火箭技术发展的重要节点,验证了猎鹰9号改进型火箭的运载能力,标志着美国商业航天在可重复运载技术探索中迈出关键一步,对后续商业航天发射发展具有标志性意义。

Basic Information
目录编号:
39271
目录名称:
CUSAT 2/FALCON 9
国际标识:
2013-055G
轨道中心:
EARTH
卫星名称:
CUSAT 2/FALCON 9
卫星全名:
--
卫星状态:
已陨落 最后检测时间 2025-02-08
发射日期:
2013-09-29 UTC
国别 :
美国 (US)
星等 :
--
Orbit Information
数据来源 国际轨道数据
星历时间: 2025-02-09T06:25:58+0800
轨道信息已过期520天
半长轴: 6526.237km
偏心率: 0.0019365
轨道倾角: 80.881°
近地点辐角 229.253°
升交点赤经 140.246°
平近点角 242.668°
近地点: 135.463km
远地点: 160.741km
周期: 87.449分钟
每日圈数: 16.466775
Detailed Information
使用方式:
暂无